DELTA 1 DEB, 10826

Orbit data source: Space-Track

DELTA 1 DEB, 10826 is space debris in SSO originally from a launch on Thu, 29 Jul 1976 UTC launched from the Air Force Western Test Range (AFWTR). Debris objects in space refer to the collection of defunct objects orbiting the Earth. Examples of debris include non-operational satellites, rocket bodies, and fragments generated from explosions, collisions, or faulty payload assembly.

Loading next visibility...
Identifier
10826, 1976-077BW
Orbit
SSO
Country
Flag of USUS
Related business
Manufacturer
Unknown
Mission
Spacecraft
Bus & Motor
Unknown
Mass
Unknown
Launch date (UTC)
1976-07-29 (50 years ago)
Launch vehicle
Unknown
Launch site
Air Force Western Test Range (AFWTR)
Object type
Payload
Rocket body
Debris
Shape & HBR
Unknown shape, 0.1 m
Radar Cross Section
Small (<0.1 m²)

Expand to show TLE details & history
Last TLE update: 1 day ago

TLE from 1 day ago
0 DELTA 1 DEB
1 10826U 76077BW  26032.75356623  .00000320  00000-0  20166-2 0  9996
2 10826 101.9317 307.0266 0162400 353.8323  27.5238 12.59842906231947
Epoch: 2026-02-01T18:05Z
TLE epoch observation values (Epoch: 2026-02-01T18:05:08.122Z)
Latitude
21.74108°
Longitude
-101.02548°
Altitude
1,314.019 km
Speed
7.253 km/s
True Right ascension
20h 08m 52s
True Declination
21° 37' 54"
Sunlit
Object was in daylight at epoch
Visualization orbit readout
Latitude
Unknown
Longitude
Unknown
Altitude
Unknown
Speed
Unknown
Apparent Right ascension
Unknown
Apparent Declination
Unknown
Sunlit
N/A
Visualization observer readout
Local Sidereal Time
02:45:41
Azimuth
Unknown
Elevation
Unknown
Doppler factor
Unknown
Orbital elements
Apogee altitude
1,547.797 km
Perigee altitude
1,294.476 km
Semi-major axis
7,799.274 km
Eccentricity
0.01624
Inclination
101.9317°
RAAN
307.0266°
Arg. of periapsis
353.8323°
True anomaly
28.3995°
Mean anomaly
27.5238°
Eccentric anomaly
27.96006°
Mean motion
3.1511 °/min
Orbital period
114.25 mins
BSTAR
0.0020166
Loading maneuver chart data...
Computing Atmospheric mass density...
Loading historical data...
Loading historical data...
Loading historical data...
Loading historical data...
Loading historical data...
Loading historical data...
Loading historical data...

Documentation

Showing up to 5 results
|